This is the latest recevied weather packets stored in our database for station/object DJ5NF-10. If no packets are shown the sender has not sent any weather packets the latest 10 day(s).
| Time | Temp. | Humidity | Pressure | Rain* | Wind** | Luminosity | Snow |
|---|---|---|---|---|---|---|---|
| 1777730188 | 26.67° C | 28% | 1012.5 hPa | - | - | - | - |
| 1777727488 | 26.11° C | 28% | 1012.5 hPa | - | - | - | - |
| 1777724788 | 26.11° C | 27% | 1013 hPa | - | - | - | - |
| 1777722088 | 25.56° C | 27% | 1013.5 hPa | - | - | - | - |
| 1777719387 | 25° C | 27% | 1013.9 hPa | - | - | - | - |
| 1777716687 | 24.44° C | 27% | 1014.4 hPa | - | - | - | - |
| 1777713991 | 23.89° C | 27% | 1014.8 hPa | - | - | - | - |
| 1777711291 | 23.33° C | 27% | 1015 hPa | - | - | - | - |
| 1777708591 | 23.33° C | 27% | 1014.9 hPa | - | - | - | - |
| 1777705890 | 22.78° C | 27% | 1015 hPa | - | - | - | - |
| 1777703191 | 22.78° C | 27% | 1014.8 hPa | - | - | - | - |
| 1777700490 | 22.22° C | 27% | 1015.1 hPa | - | - | - | - |
| 1777697789 | 22.22° C | 27% | 1014.9 hPa | - | - | - | - |
| 1777695090 | 22.78° C | 27% | 1015 hPa | - | - | - | - |
| 1777689689 | 23.33° C | 27% | 1015.6 hPa | - | - | - | - |
| 1777686989 | 23.33° C | 27% | 1015.8 hPa | - | - | - | - |
| 1777684289 | 23.33° C | 27% | 1016.2 hPa | - | - | - | - |
| 1777681589 | 23.89° C | 27% | 1016.6 hPa | - | - | - | - |
| 1777678889 | 23.89° C | 27% | 1017 hPa | - | - | - | - |
| 1777676189 | 24.44° C | 27% | 1017 hPa | - | - | - | - |
| 1777673489 | 24.44° C | 27% | 1017.2 hPa | - | - | - | - |
| 1777670789 | 25° C | 27% | 1017.4 hPa | - | - | - | - |
| 1777668089 | 25° C | 27% | 1017.4 hPa | - | - | - | - |
| 1777665389 | 25.56° C | 27% | 1017.5 hPa | - | - | - | - |
| 1777662689 | 25.56° C | 27% | 1017.5 hPa | - | - | - | - |
* Rain since midnight (hover to see other rain measurements)
** Current wind speed in m/s (hover to see current wind gust speed)